Other Public Products
Issued by NWS Grand Forks, ND

Home | Current Version | Previous Version | Graphics & Text | Print | Product List | Glossary On
Versions: 1 2 3 4 5 6 7 8 9 10 11 12 13 14 15 16 17 18 19 20 21 22 23 24 25 26 27 28 29 30 31 32 33 34 35 36 37 38 39 40 41 42 43 44 45 46 47 48 49 50
000
FPUS83 KFGF 101031
OPUFGF
PRAIRIE TO PINES WEATHER ROUNDUP
NATIONAL WEATHER SERVICE EASTERN NORTH DAKOTA/GRAND FORKS ND
400 AM CST SAT DEC 10 2016

 **SATELLITE DATA USED TO AUGMENT SKY COVER AT AUTOMATED STATIONS**
 *****  WEATHER ACROSS EASTERN NORTH DAKOTA  *****

CITY           SKY/WX    TMP DP  RH WIND       PRES   REMARKS
GRAND FORKS    CLOUDY    -3  -9  75 N7        30.54S WCI -16
GRAND FORKS AF CLOUDY    -4 -10  74 NW5       30.53F WCI -14
GRAND CITY NWS NOT AVBL
BUXTON           N/A     30  27  89 NW5         N/A  WCI  25
DEVILS LAKE    CLOUDY   -15 -19  82 W6        30.47S WCI -29
FARGO          CLOUDY    -6 -13  71 W6        30.53F WCI -19
WAHPETON ARPT  SUNNY     -9 -15  77 NW3       30.53F
$$

 *****  WEATHER ACROSS CENTRAL AND WESTERN NORTH DAKOTA  *****

CITY           SKY/WX    TMP DP  RH WIND       PRES   REMARKS
JAMESTOWN      CLOUDY   -15 -19  82 NW6       30.46F WCI -29
BISMARCK       CLOUDY   -13 -17  82 NE5       30.45F WCI -25
MINOT          CLOUDY   -18 -23  77 SW6       30.41F WCI -33
MINOT AFB      CLOUDY   -23 -29  72 SW5       30.41F WCI -37
GARRISON         N/A    -13 -17  82 NE5       30.38F WCI -25
WILLISTON      CLOUDY   -15 -20  78 N3        30.35F
DICKINSON      CLOUDY   -10 -16  74 E5        30.25F WCI -22
HETTINGER      CLOUDY    -6 -10  83 E9        30.25F WCI -23
$$

 *****  OTHER OBSERVATIONS NORTHEAST NORTH DAKOTA  *****

CITY           SKY/WX    TMP DP  RH WIND       PRES   REMARKS
WALHALLA         N/A    -13 -13 100 CALM      30.53S
LANGDON        FAIR     -18 -24  76 W3        30.43F
CAVALIER         N/A    -13 -18  77 W6        30.53S WCI -27
GRAFTON        FAIR      -9 -15  77 W6        30.56S WCI -23
CANDO          FAIR     -17 -22  76 W5        30.48F WCI -29
FORT TOTTEN      N/A    -19 -25  73 CALM      29.95S
ROLLA          FAIR     -22 -27  76 CALM      30.40F
RUGBY            N/A    -20 -26  76 CALM      30.43F
 ***** THE ABOVE OBSERVATIONS ARE NON NWS ARE NOT QUALITY
        CONTROLLED AND MAY MIS-REPORT RAIN FOR SNOW...
$$

 *****  OTHER OBSERVATIONS SOUTHEAST NORTH DAKOTA *****

CITY           SKY/WX    TMP DP  RH WIND       PRES   REMARKS
COOPERSTOWN    FAIR     -18 -24  76 W6        30.47S WCI -33
VALLEY CITY    FAIR     -17 -20  83 NW7       30.49S WCI -33
OAKES          NOT AVBL
GWINNER        FAIR      -8 -13  77 NW5       30.49F WCI -19
SHEYENNE NWR     N/A    -15 -23  66 NW2       29.95S
BUFFALO          N/A    -13 -19  75 NW6         N/A  WCI -27
WYNDMERE         N/A     -9 -15  77 NW3         N/A
 ***** THE ABOVE OBSERVATIONS ARE NON NWS ARE NOT QUALITY
       CONTROLLED AND MAY MIS-REPORT RAIN FOR SNOW...
$$

  *****  WEATHER ACROSS NORTHERN MINNESOTA  *****

CITY           SKY/WX    TMP DP  RH WIND       PRES   REMARKS
FLAG ISLAND    CLOUDY    -6  -9  84 W12       30.44F WCI -24
WARROAD        CLOUDY   -11 -17  77 W5        30.47S WCI -23
ROSEAU         CLOUDY    -9 -15  77 W7        30.49R WCI -24
HALLOCK        CLOUDY    -9 -15  77 CALM      30.53S
THF RVR FALLS  CLOUDY    -8 -13  77 W5        30.50F WCI -19
HALSTAD          N/A     -7 -11  81 N3          N/A
FOSSTON        CLOUDY   -11 -17  77 CALM      30.47S
BAUDETTE       PTCLDY   -10 -15  78 NW3       30.44S
WASKISH        PTCLDY    -2  -6  84 NW7       30.45S WCI -16
CROOKSTON      CLOUDY    -2  -8  78 N7        30.53F WCI -16
$$
  *****  WEATHER ACROSS CENTRAL AND WEST MINNESOTA  *****

CITY           SKY/WX    TMP DP  RH WIND       PRES   REMARKS
BEMIDJI        CLOUDY   -10 -14  85 W3        30.44S
PARK RAPIDS    CLOUDY   -10 -17  71 W6        30.43F WCI -23
WADENA         CLOUDY    -6  -9  84 CALM      30.45S
DETROIT LAKES  CLOUDY    -9 -13  84 CALM      30.46F
MOORHEAD       CLOUDY    -8 -13  77 CALM      30.53S
FERGUS FALLS   PTCLDY   -13 -17  84 N3        30.56S
ELBOW LAKE     FAIR     -10 -14  82 NW5       30.50S WCI -21
MORRIS MN      CLEAR     -8 -11  84 NW6       30.49S WCI -21
STAPLES        NOT AVBL
WHEATON        CLOUDY    -8 -11  84 W5        30.54F WCI -19
$$
  *****  WEATHER ELSEWHERE ACROSS MINNESOTA  *****

CITY           SKY/WX    TMP DP  RH WIND       PRES   REMARKS
DULUTH         CLOUDY     4  -4  69 NW9       30.40S WCI -10
INTRNTL FALLS  CLEAR     -6 -11  79 W8        30.43S WCI -21
ELY            CLEAR     -6  -9  84 W5        30.39S WCI -17
CLOQUET        CLOUDY     5  -2  72 NW6       30.42S WCI  -6
BRAINERD       CLOUDY     2  -4  76 NW5       30.46S WCI  -8
HIBBING        CLOUDY    -1  -5  82 NW8       30.41F WCI -15
ALEXANDRIA     CLOUDY    -5 -10  79 W3        30.46F
SAINT CLOUD    CLEAR      0  -4  83 W7        30.49F WCI -13
MINNEAPOLIS    CLEAR      5  -1  76 NW7       30.51F WCI  -7
$$

  *****  WEATHER ACROSS SOUTH DAKOTA  *****

CITY           SKY/WX    TMP DP  RH WIND       PRES   REMARKS
SIOUX FALLS    CLOUDY    10   6  84 NE5       30.44F WCI   2
BROOKINGS      CLOUDY     3  -3  76 E5        30.43F WCI  -6
WATERTOWN      CLOUDY    -3  -6  87 N3        30.42F
HURON          CLOUDY    -1  -4  87 N3        30.48F
SISSETON         N/A     -9 -14  78 W5        30.51S WCI -20
ABERDEEN       CLOUDY    -7 -15  68 N3        30.51F
MITCHELL       CLOUDY     7   2  80 NE9       30.46F WCI  -7
PIERRE         CLOUDY    -2  -8  76 E9        30.38F WCI -18
MOBRIDGE       CLOUDY    -6 -13  71 E9        30.35F WCI -23
RAPID CITY     CLOUDY     3  -2  79 S16       30.12F WCI -16
$$

  *****  SOME WEATHER IN NEARBY STATES *****

CITY           SKY/WX    TMP DP  RH WIND       PRES   REMARKS
GLASGOW MT     CLOUDY    -5 -10  79 SE14      30.17F WCI -25
GREAT FALLS MT CLOUDY     0  -4  83 NE3       29.88F
CHEYENNE WY    CLOUDY    28  20  71 CALM      29.96F
SCOTTSBLUFF NE CLEAR     14   8  77 E15       30.02F WCI  -1
OMAHA NE       CLOUDY    23  13  65 SE3       30.47S
DES MOINES IA  CLOUDY    23  12  62 CALM      30.49F
DAVENPORT IA   CLOUDY    19  14  81 SW6       30.53F WCI  11
CHICAGO IL     CLOUDY    19  12  74 W10       30.49F WCI   7
EAU CLAIRE WI  CLOUDY    11   4  73 W9        30.46S WCI  -2
LA CROSSE WI   MOCLDY    12   4  70 W12       30.52R WCI  -2
$$

  *****  SOME NATIONAL WEATHER *****

CITY           SKY/WX    TMP DP  RH WIND       PRES   REMARKS
LA GUARDIA NY  CLEAR     32  17  54 NW13      30.34R WCI  22
RALEIGH NC     CLEAR     22  15  75 CALM      30.51S
ATLANTA GA     CLEAR     27  19  72 NW9       30.47R WCI  18
NEW ORLEANS LA CLEAR     41  28  60 E7        30.52S
OKLAHOMA CITY  CLOUDY    34  19  54 S9        30.41S
ALBUQUERQUE NM CLOUDY    33  26  75 N3        30.29R
SALT LAKE CITY CLOUDY    36  31  82 CALM      29.98F
LOS ANGELES CA CLOUDY    59  56  89 SE5       30.16S FOG
BOISE ID       CLOUDY    32  31  96 N6        29.92F FOG
SEATTLE WA     MOCLDY    36  35  96 SE8       29.82S
$$

*** WEATHER ACROSS MANITOBA...SASKATCHEWAN AND ONTARIO ***
                ***ONTARIO***

CITY           SKY/WX    TMP DP  RH WIND       PRES   REMARKS
GERALDTON      FLURRIES  -6  -9  84 NW3       30.29S
THUNDER BAY    FLURRIES  10   1  67 NW8       30.39S WCI  -1
SIOUX LOOKOUT  FLURRIES  -6 -11  77 NW5       30.36R WCI -17
TORONTO        FLURRIES  21  14  73 VRB2      30.31S
BIG TROUT LK   FLURRIES  -8 -11  84 NW10      30.36F WCI -26
PICKLE LAKE    NOT AVBL
DRYDEN         CLEAR     -9 -13  84 W6        30.36S WCI -23
KENORA         CRYSTALS  -6  -9  84 NW6       30.40S WCI -18
$$
                *** MANITOBA***

CITY           SKY/WX    TMP DP  RH WIND       PRES   REMARKS
BRANDON        CLEAR    -20 -26  76 W6        30.45F WCI -36
DAUPHIN        CLEAR    -22 -27  76 SW9       30.47F WCI -42
ISLAND LAKE    NOT AVBL
PILOT MOUND      N/A    -20 -26  76 SW3         N/A
THE PAS        FLURRIES  -8 -13  77 SW5       30.44F WCI -19
THOMPSON       CLOUDY    -6  -9  84 SW5       30.41F WCI -17
WINNIPEG       MOCLDY   -11 -17  77 W5        30.52S WCI -23
LYNN LAKE      FLURRIES  -6  -9  84 W5        30.31F WCI -17
CHURCHILL      PTCLDY   -13 -18  77 W12       30.33F WCI -33
GILLAM         CLEAR    -11 -17  77 W8        30.41S WCI -28
$$
                ***SASKATCHEWAN***

CITY           SKY/WX    TMP DP  RH WIND       PRES   REMARKS
ESTEVAN        FOG      -22 -27  76 E3        30.35F VSB 3/4
KINDERSLEY     PTCLDY    -8 -11  84 E13       30.15F WCI -28
LLOYDMINSTER   CLEAR    -17 -22  76 SE3       30.20F
PRINCE ALBERT  CRYSTALS -22 -27  76 CALM      30.37F
REGINA         CLEAR    -15 -20  76 SE9       30.32F WCI -33
YORKTON        CLEAR    -15 -20  76 SW5       30.38F WCC1F1C2F2C3F3C4F4C5F5C6F6C7F7C8F8C9F9CaFaCbFbCcFcCdFdCe!



USA.gov is the U.S. government's official web portal to all federal, state and local government web resources and services.